Current Weather Conditions: station 62114

sailwx.info

See reports from other nearby stations

no recent reports received from weather station ID 62114

Tides Pressure Air temp Water temp Dewpoint Dewpoint depression Visibility Wind speed Wind direction Waves Ship positions
date/time (UTC)wind fromknots sea level pressurealtimeterstation pressurevisibilityair tempwater tempwave heightnotes
2014-Dec-18 10:00 240 20 8.5
2014-Dec-18 09:00 230 24 9.2
2014-Dec-18 08:00 240 20 8.5
2014-Dec-18 07:00 220 23 9.1
2014-Dec-18 06:00 210 26 9.1
2014-Dec-18 05:00 220 26 9.0
2014-Dec-18 04:00 220 24 8.9
2014-Dec-18 03:00 220 24 9.0
2014-Dec-18 02:00 220 26 8.9
2014-Dec-18 01:00 220 20 8.8
2014-Dec-18 00:00 230 22 8.7
2014-Dec-17 23:00 230 20 8.6
2014-Dec-17 22:00 220 20 8.3
2014-Dec-17 21:00 240 19 8.1
2014-Dec-17 20:00 250 20 8.6
2014-Dec-17 19:00 260 23 8.6
2014-Dec-17 18:00 250 25 8.6
2014-Dec-17 17:00 250 23 8.7
2014-Dec-17 16:00 250 20 8.6
2014-Dec-17 15:00 250 22 8.3
2014-Dec-17 14:00 250 18 8.7
2014-Dec-17 13:00 270 20 8.4
2014-Dec-17 12:00 270 22 8.6
2014-Dec-17 11:00 260 20 8.6
2014-Dec-17 10:00 280 22 8.7
2014-Dec-17 09:00 280 23 8.6
2014-Dec-17 08:00 240 12 7.3
2014-Dec-17 07:00 240 12 7.0
2014-Dec-17 06:00 160 17 6.8
2014-Dec-17 05:00 160 15 6.1
2014-Dec-17 04:00 180 20 5.9
2014-Dec-17 02:00 180 19 6.0
2014-Dec-17 01:00 170 17 6.1
2014-Dec-17 00:00 180 18 6.1
2014-Dec-16 23:00 170 18 6.0
2014-Dec-16 22:00 190 14 5.7
2014-Dec-16 21:00 220 11 6.0
2014-Dec-16 20:00 250 12 6.3
2014-Dec-16 19:00 270 14 6.8
2014-Dec-16 18:00 280 16 6.6
2014-Dec-16 17:00 280 22 6.6